Weather History for KFOT - October, 2012

Change the Weather History Date:

Saturday, October 20, 2012

  Actual Average (KEKA) Record (KEKA)
Temperature  
Mean Temperature 52 °F 54 °F  
Max Temperature 59 °F 62 °F 77 °F (1998)
Min Temperature 46 °F 47 °F 35 °F (1949)
Degree Days  
Heating Degree Days 12 11  
Month to date heating degree days 203  
Since 1 July heating degree days 868  
Cooling Degree Days 0 0  
Month to date cooling degree days 0  
Year to date cooling degree days 0  
Growing Degree Days 2 (Base 50)    
Moisture  
Dew Point 49 °F    
Average Humidity 86    
Maximum Humidity 100    
Minimum Humidity 51    
Precipitation  
Precipitation 0.01 in 0.08 in 1.89 in (1947)
Month to date precipitation 1.09  
Year to date precipitation 25.45  
Since 1 July precipitation 2.17  
Snow  
Snow - 0.00 in 0.00 in (2002)
Month to date snowfall 0.0  
Since 1 July snowfall 0.0  
Since 1 September snowfall 0.0  
Snow Depth -    
Sea Level Pressure  
Sea Level Pressure 30.01 in    
Wind  
Wind Speed 5 mph ()    
Max Wind Speed 22 mph    
Max Gust Speed 29 mph    
Visibility 7.4 miles    
Events      
T = Trace of Precipitation, MM = Missing Value Source: Averaged Metar Reports

Daily Weather History Graph

Daily Weather History Graph

Search for Another Location

Airport or City:

Trip Planner

Search our weather history database for the weather conditions in past years. The results will help you decide how hot, cold, wet, or windy it might be!

Date:

Astronomy

Oct. 20, 2012 Rise Set
Actual Time 7:33 AM PDT 6:28 PM PDT
Civil Twilight 7:05 AM PDT 6:55 PM PDT
Nautical Twilight 6:34 AM PDT 7:27 PM PDT
Astronomical Twilight 6:02 AM PDT 7:59 PM PDT
Moon 1:14 PM PDT (10/20) 11:19 PM PDT (10/20)
Length of Visible Light 11h 49m
Length of Day
10h 54m
Waxing Crescent, 35% of the Moon is Illuminated
Oct 20
Waxing Crescent
Oct 21
First Quarter
Oct 29
Full
Nov 6
Last Quarter
Nov 13
New

Hourly Weather History & Observations

Time (PDT) Temp. Dew Point Humidity Pressure Visibility Wind Dir Wind Speed Gust Speed Precip Events Conditions
12:15 AM 55.4 °F 55.4 °F 100% 30.01 in 0.2 mi Calm Calm - N/A   Overcast
12:35 AM 55.4 °F 55.4 °F 100% 30.01 in 0.2 mi Calm Calm - N/A   Overcast
12:55 AM 55.4 °F 55.4 °F 100% 30.01 in 0.2 mi Calm Calm - N/A   Overcast
1:15 AM 55.4 °F 55.4 °F 100% 30.02 in 0.2 mi Calm Calm - N/A   Overcast
1:55 AM 55.4 °F 55.4 °F 100% 30.01 in 0.2 mi Calm Calm - N/A   Overcast
2:15 AM 55.4 °F 55.4 °F 100% 30.02 in 0.2 mi Calm Calm - N/A   Overcast
3:15 AM 55.4 °F 55.4 °F 100% 30.02 in 0.2 mi Calm Calm - N/A   Overcast
3:35 AM 55.4 °F 55.4 °F 100% 30.01 in 0.2 mi Calm Calm - N/A   Overcast
3:55 AM 55.4 °F 55.4 °F 100% 30.01 in 0.2 mi Calm Calm - N/A   Overcast
4:15 AM 55.4 °F 55.4 °F 100% 30.00 in 0.2 mi Calm Calm - N/A   Overcast
4:35 AM 55.4 °F 55.4 °F 100% 30.01 in 0.2 mi Calm Calm - N/A   Overcast
4:55 AM 55.4 °F 55.4 °F 100% 30.00 in 0.2 mi Calm Calm - N/A   Overcast
5:15 AM 55.4 °F 55.4 °F 100% 30.01 in 0.2 mi Calm Calm - N/A   Overcast
5:35 AM 55.4 °F 55.4 °F 100% 30.00 in 0.2 mi Calm Calm - N/A   Overcast
5:55 AM 55.4 °F 55.4 °F 100% 30.00 in 0.2 mi NW 3.5 mph - N/A   Overcast
6:15 AM 55.4 °F 55.4 °F 100% 30.00 in 0.2 mi NW 6.9 mph - N/A   Overcast
6:35 AM 53.6 °F 53.6 °F 100% 30.00 in 0.2 mi NW 6.9 mph - 0.01 in   Overcast
6:55 AM 53.6 °F 53.6 °F 100% 30.00 in 1.0 mi NNW 4.6 mph - 0.01 in   Overcast
7:15 AM 53.6 °F 53.6 °F 100% 30.01 in 10.0 mi North 5.8 mph - N/A   Overcast
7:35 AM 53.6 °F 53.6 °F 100% 30.01 in 10.0 mi Calm Calm - N/A   Overcast
7:55 AM 53.6 °F 53.6 °F 100% 30.01 in 10.0 mi NW 3.5 mph - N/A   Overcast
8:15 AM 53.6 °F 53.6 °F 100% 30.01 in 10.0 mi Calm Calm - N/A   Overcast
8:35 AM 53.6 °F 53.6 °F 100% 30.02 in 10.0 mi WNW 5.8 mph - N/A   Overcast
9:15 AM 53.6 °F 53.6 °F 100% 30.04 in 10.0 mi NNW 3.5 mph - N/A   Overcast
9:35 AM 53.6 °F 53.6 °F 100% 30.04 in 10.0 mi Calm Calm - N/A   Overcast
9:55 AM 53.6 °F 53.6 °F 100% 30.05 in 10.0 mi NW 5.8 mph - N/A   Overcast
10:15 AM 55.4 °F 53.6 °F 94% 30.04 in 10.0 mi NNW 11.5 mph - N/A   Overcast
10:35 AM 55.4 °F 53.6 °F 94% 30.04 in 10.0 mi NNW 9.2 mph - N/A   Overcast
10:55 AM 55.4 °F 51.8 °F 88% 30.04 in 10.0 mi NNW 11.5 mph 17.3 mph N/A   Overcast
11:15 AM 55.4 °F 51.8 °F 88% 30.04 in 10.0 mi NNW 15.0 mph 20.7 mph N/A   Overcast
11:35 AM 57.2 °F 50.0 °F 77% 30.04 in 10.0 mi North 11.5 mph 19.6 mph N/A   Overcast
11:55 AM 55.4 °F 50.0 °F 82% 30.04 in 10.0 mi NNW 17.3 mph 21.9 mph N/A   Overcast
12:15 PM 57.2 °F 50.0 °F 77% 30.04 in 10.0 mi North 15.0 mph 24.2 mph N/A   Overcast
12:35 PM 55.4 °F 48.2 °F 77% 30.04 in 10.0 mi North 18.4 mph 25.3 mph N/A   Mostly Cloudy
12:55 PM 59.0 °F 48.2 °F 67% 30.03 in 10.0 mi NNW 16.1 mph 20.7 mph N/A   Mostly Cloudy
1:15 PM 57.2 °F 46.4 °F 67% 30.03 in 10.0 mi North 16.1 mph 25.3 mph N/A   Scattered Clouds
1:35 PM 57.2 °F 44.6 °F 63% 30.02 in 10.0 mi NNW 15.0 mph 23.0 mph N/A   Partly Cloudy
1:55 PM 57.2 °F 44.6 °F 63% 30.02 in 10.0 mi NNW 19.6 mph 25.3 mph N/A   Clear
2:15 PM 57.2 °F 39.2 °F 51% 30.02 in 10.0 mi NNW 21.9 mph 28.8 mph N/A   Clear
2:35 PM 57.2 °F 39.2 °F 51% 30.00 in 10.0 mi NNW 19.6 mph 27.6 mph N/A   Clear
2:55 PM 57.2 °F 41.0 °F 55% 30.00 in 10.0 mi NNW 16.1 mph 24.2 mph N/A   Clear
3:15 PM 57.2 °F 41.0 °F 55% 30.00 in 10.0 mi NNW 16.1 mph 20.7 mph N/A   Clear
3:35 PM 57.2 °F 41.0 °F 55% 30.00 in 10.0 mi NNW 18.4 mph 23.0 mph N/A   Clear
3:55 PM 57.2 °F 41.0 °F 55% 30.00 in 10.0 mi NNW 17.3 mph 25.3 mph N/A   Clear
4:15 PM 57.2 °F 41.0 °F 55% 30.00 in 10.0 mi NNW 17.3 mph 23.0 mph N/A   Clear
4:35 PM 55.4 °F 41.0 °F 58% 30.01 in 10.0 mi North 16.1 mph 23.0 mph N/A   Clear
4:55 PM 55.4 °F 41.0 °F 58% 30.00 in 10.0 mi NNW 17.3 mph 20.7 mph N/A   Clear
5:15 PM 55.4 °F 41.0 °F 58% 30.00 in 10.0 mi NNW 11.5 mph - N/A   Clear
5:35 PM 53.6 °F 41.0 °F 62% 29.99 in 10.0 mi NW 11.5 mph 16.1 mph N/A   Clear
5:55 PM 53.6 °F 39.2 °F 58% 30.00 in 10.0 mi NNW 11.5 mph 17.3 mph N/A   Clear
6:15 PM 53.6 °F 39.2 °F 58% 29.99 in 10.0 mi NNW 6.9 mph 16.1 mph N/A   Clear
6:55 PM 50.0 °F 42.8 °F 76% 29.99 in 10.0 mi NNW 9.2 mph - N/A   Clear
7:15 PM 50.0 °F 44.6 °F 82% 30.00 in 10.0 mi NW 3.5 mph - N/A   Clear
7:35 PM 48.2 °F 44.6 °F 87% 30.00 in 10.0 mi NW 4.6 mph - N/A   Clear
7:55 PM 48.2 °F 46.4 °F 93% 30.00 in 10.0 mi Calm Calm - N/A   Clear
8:15 PM 48.2 °F 46.4 °F 93% 30.00 in 10.0 mi Calm Calm - N/A   Clear
8:35 PM 46.4 °F 46.4 °F 100% 29.99 in 10.0 mi Calm Calm - N/A   Clear
8:55 PM 46.4 °F 46.4 °F 100% 30.00 in 10.0 mi Calm Calm - N/A   Clear
9:15 PM 48.2 °F 46.4 °F 93% 30.01 in 10.0 mi Calm Calm - N/A   Clear
9:35 PM 48.2 °F 46.4 °F 93% 30.01 in 10.0 mi Calm Calm - N/A   Clear
9:55 PM 46.4 °F 46.4 °F 100% 30.01 in 10.0 mi Calm Calm - N/A   Clear
10:15 PM 46.4 °F 46.4 °F 100% 30.01 in 10.0 mi Calm Calm - N/A   Clear
10:35 PM 48.2 °F 44.6 °F 87% 30.00 in 10.0 mi Calm Calm - N/A   Clear
10:55 PM 46.4 °F 44.6 °F 93% 30.00 in 10.0 mi Calm Calm - N/A   Clear
11:15 PM 46.4 °F 44.6 °F 93% 30.00 in 10.0 mi Calm Calm - N/A   Clear
11:35 PM 46.4 °F 44.6 °F 93% 30.00 in 10.0 mi Calm Calm - N/A   Clear
11:55 PM 46.4 °F 44.6 °F 93% 30.00 in 10.0 mi Calm Calm - N/A   Clear